This is the latest recevied weather packets stored in our database for station/object VE3MJM-WX. If no packets are shown the sender has not sent any weather packets the latest 10 day(s).
| Time | Temp. | Humidity | Pressure | Rain* | Wind** | Luminosity | Snow |
|---|---|---|---|---|---|---|---|
| 1778111455 | 7.22° C | 49% | 973 hPa | 0 mm | - | - | - |
| 1778111421 | 7.22° C | 49% | 973 hPa | 0 mm | - | - | - |
| 1778110552 | 7.78° C | 48% | 973 hPa | 0 mm | - | - | - |
| 1778110518 | 7.78° C | 48% | 973 hPa | 0 mm | - | - | - |
| 1778109616 | 7.22° C | 47% | 973.2 hPa | 0 mm | - | - | - |
| 1778108714 | 7.78° C | 46% | 973.3 hPa | 0 mm | - | - | - |
| 1778107844 | 7.78° C | 46% | 973.1 hPa | 0 mm | - | - | - |
| 1778107811 | 7.78° C | 46% | 973.1 hPa | 0 mm | - | - | - |
| 1778106942 | 8.33° C | 48% | 973.2 hPa | 0 mm | - | - | - |
| 1778106908 | 8.33° C | 48% | 973.2 hPa | 0 mm | - | - | - |
| 1778106039 | 7.78° C | 45% | 973 hPa | 0 mm | - | - | - |
| 1778106006 | 7.78° C | 45% | 973 hPa | 0 mm | - | - | - |
| 1778105103 | 7.78° C | 50% | 972.8 hPa | 0 mm | - | - | - |
| 1778104231 | 7.78° C | 48% | 972.8 hPa | 0 mm | - | - | - |
| 1778104201 | 8.33° C | 46% | 972.7 hPa | 0 mm | - | - | - |
| 1778103328 | 8.33° C | 49% | 972.8 hPa | 0 mm | - | - | - |
| 1778103298 | 8.33° C | 48% | 972.8 hPa | 0 mm | - | - | - |
| 1778102426 | 8.33° C | 46% | 972.6 hPa | 0 mm | - | - | - |
| 1778102396 | 8.33° C | 47% | 972.5 hPa | 0 mm | - | - | - |
| 1778101523 | 7.78° C | 47% | 972.2 hPa | 0 mm | - | - | - |
| 1778101493 | 7.78° C | 49% | 972.2 hPa | 0 mm | - | - | - |
| 1778100621 | 7.78° C | 48% | 972.3 hPa | 0 mm | - | - | - |
| 1778100590 | 8.33° C | 51% | 972 hPa | 0 mm | - | - | - |
| 1778099718 | 8.89° C | 50% | 972.3 hPa | 0 mm | - | - | - |
| 1778099688 | 7.78° C | 52% | 972.3 hPa | 0 mm | - | - | - |
* Rain latest hour (hover to see other rain measurements)
** Current wind speed in m/s (hover to see current wind gust speed)